Hourly Data Report for March 29, 2017

All times are specified in Local Standard Time (LST). Add 1 hour to adjust for Daylight Saving Time where and when it is observed.

TORONTO CITY
ONTARIO

43°40'00.000" N
79°24'00.000" W
112.50 m
6158355
71508
XTO

Download Data

Hourly Data (March 2017)
Hourly Data Report for March 29, 2017
TIME Temp Definition
°C
Dew Point Definition
°C
Rel Hum Definition
%
Wind Dir Definition
10's deg

Wind Spd Definition
km/h
Visibility Definition
km
Stn Press Definition
kPa
Hmdx Definition


Wind Chill Definition


Weather Definition


00:00 4.3 -0.7 70 LegendMM LegendMM   100.78     LegendNANA
01:00 4.6 -1.2 66 LegendMM LegendMM   100.84     LegendNANA
02:00 4.2 -1.3 67 LegendMM LegendMM   100.90     LegendNANA
03:00 4.3 -1.8 65 LegendMM LegendMM   100.88     LegendNANA
04:00 4.2 -2.2 63 LegendMM LegendMM   100.87     LegendNANA
05:00 4.1 -2.6 62 LegendMM LegendMM   100.89     LegendNANA
06:00 4.0 -2.6 62 LegendMM LegendMM   100.95     LegendNANA
07:00 4.5 -2.4 61 LegendMM LegendMM   101.03     LegendNANA
08:00 4.8 -2.3 60 LegendMM LegendMM   101.10     LegendNANA
09:00 6.1 -2.3 55 LegendMM LegendMM   101.12     LegendNANA
10:00 6.8 -2.3 52 LegendMM LegendMM   101.18     LegendNANA
11:00 6.8 -2.1 53 LegendMM LegendMM   101.20     LegendNANA
12:00 8.0 -2.5 47 LegendMM LegendMM   101.15     LegendNANA
13:00 8.1 -3.2 45 LegendMM LegendMM   101.11     LegendNANA
14:00 7.3 -3.9 45 LegendMM LegendMM   101.10     LegendNANA
15:00 7.1 -3.8 46 LegendMM LegendMM   101.12     LegendNANA
16:00 7.4 -3.3 46 LegendMM LegendMM   101.14     LegendNANA
17:00 7.6 -2.5 49 LegendMM LegendMM   101.16     LegendNANA
18:00 7.0 -3.4 48 LegendMM LegendMM   101.18     LegendNANA
19:00 6.8 -3.1 49 LegendMM LegendMM   101.21     LegendNANA
20:00 6.9 -4.2 45 LegendMM LegendMM   101.23     LegendNANA
21:00 5.9 -3.3 52 LegendMM LegendMM   101.18     LegendNANA
22:00 5.4 -3.5 53 LegendMM LegendMM   101.14     LegendNANA
23:00 4.6 -2.6 60 LegendMM LegendMM   101.09     LegendNANA

Notes on Data Quality.

Legend

  • E = Estimated
  • M = Missing
  • NA = Not Available
Date modified: